| time (UTC) | temp F | wind direction | speed knots | gust knots | rain 1hr in | rain 24hr in | rain mn in | humidity % | barometer mb |
| 20260506211307 | 81 | 248 | 5.2 | 10.4 | 0.00 | 0.00 | 0.00 | 28 | 1013.9 |
| 20260506210528 | 81 | 291 | 3.5 | 10.4 | 0.00 | 0.00 | 0.00 | 27 | 1013.9 |
| 20260506210022 | 81 | 334 | 3.5 | 8.7 | 0.00 | 0.00 | 0.00 | 27 | 1013.9 |
| 20260506205518 | 81 | 322 | 3.5 | 9.6 | 0.00 | 0.00 | 0.00 | 27 | 1014.0 |
| 20260506205018 | 81 | 327 | 3.5 | 9.6 | 0.00 | 0.00 | 0.00 | 26 | 1014.0 |
| 20260506204518 | 81 | 318 | 3.5 | 9.6 | 0.00 | 0.00 | 0.00 | 26 | 1014.1 |
| 20260506204021 | 80 | 316 | 3.5 | 10.4 | 0.00 | 0.00 | 0.00 | 27 | 1014.1 |
| 20260506203519 | 80 | 219 | 3.5 | 10.4 | 0.00 | 0.00 | 0.00 | 26 | 1014.2 |
| 20260506203019 | 80 | 315 | 3.5 | 7.8 | 0.00 | 0.00 | 0.00 | 26 | 1014.2 |
| 20260506202825 | 81 | 12 | 4.3 | 9.6 | 0.00 | 0.00 | 0.00 | 26 | 1014.2 |
| 20260506202821 | 81 | 355 | 4.3 | 9.6 | 0.00 | 0.00 | 0.00 | 26 | 1014.3 |
| 20260506201516 | 80 | 254 | 3.5 | 8.7 | 0.00 | 0.00 | 0.00 | 27 | 1014.2 |
| 20260506201300 | 79 | 331 | 2.6 | 11.3 | 0.00 | 0.00 | 0.00 | 29 | 1014.2 |
| 20260506200758 | 79 | 17 | 3.5 | 11.3 | 0.00 | 0.00 | 0.00 | 29 | 1014.2 |
| 20260506200017 | 79 | 276 | 4.3 | 11.3 | 0.00 | 0.00 | 0.00 | 28 | 1014.4 |
| 20260506195512 | 79 | 298 | 3.5 | 9.6 | 0.00 | 0.00 | 0.00 | 27 | 1014.4 |
| 20260506195012 | 79 | 350 | 4.3 | 13.0 | 0.00 | 0.00 | 0.00 | 28 | 1014.4 |
| 20260506194512 | 78 | 244 | 4.3 | 13.0 | 0.00 | 0.00 | 0.00 | 29 | 1014.4 |
| 20260506194257 | 78 | 219 | 3.5 | 11.3 | 0.00 | 0.00 | 0.00 | 29 | 1014.6 |
| 20260506193512 | 78 | 303 | 3.5 | 7.8 | 0.00 | 0.00 | 0.00 | 31 | 1014.7 |
| 20260506193258 | 78 | 262 | 5.2 | 9.6 | 0.00 | 0.00 | 0.00 | 30 | 1014.8 |
| 20260506192758 | 78 | 226 | 5.2 | 9.6 | 0.00 | 0.00 | 0.00 | 30 | 1015.0 |
| 20260506192025 | 78 | 263 | 5.2 | 13.9 | 0.00 | 0.00 | 0.00 | 31 | 1014.8 |
| 20260506192011 | 78 | 215 | 5.2 | 11.3 | 0.00 | 0.00 | 0.00 | 31 | 1014.8 |
| 20260506191010 | 78 | 301 | 4.3 | 13.9 | 0.00 | 0.00 | 0.00 | 31 | 1014.8 |
| 20260506190518 | 78 | 241 | 4.3 | 10.4 | 0.00 | 0.00 | 0.00 | 32 | 1015.0 |
| 20260506190011 | 77 | 290 | 3.5 | 9.6 | 0.00 | 0.00 | 0.00 | 31 | 1015.1 |
| 20260506185744 | 77 | 265 | 2.6 | 9.6 | 0.00 | 0.00 | 0.00 | 30 | 1015.1 |
| 20260506185011 | 77 | 130 | 3.5 | 8.7 | 0.00 | 0.00 | 0.00 | 31 | 1015.0 |
| 20260506184510 | 77 | 233 | 3.5 | 8.7 | 0.00 | 0.00 | 0.00 | 31 | 1015.2 |
| 20260506184009 | 78 | 242 | 2.6 | 7.0 | 0.00 | 0.00 | 0.00 | 31 | 1015.1 |
| 20260506183509 | 77 | 140 | 1.7 | 7.0 | 0.00 | 0.00 | 0.00 | 34 | 1015.1 |
| 20260506183009 | 77 | 117 | 1.7 | 4.3 | 0.00 | 0.00 | 0.00 | 33 | 1015.1 |
| 20260506182510 | 76 | 83 | 1.7 | 6.1 | 0.00 | 0.00 | 0.00 | 34 | 1015.2 |
| 20260506182010 | 76 | 252 | 1.7 | 6.1 | 0.00 | 0.00 | 0.00 | 34 | 1015.2 |
| 20260506181510 | 76 | 74 | 0.9 | 3.5 | 0.00 | 0.00 | 0.00 | 36 | 1015.2 |
| 20260506181010 | 75 | 86 | 1.7 | 4.3 | 0.00 | 0.00 | 0.00 | 36 | 1015.3 |
| 20260506180507 | 74 | 11 | 0.9 | 4.3 | 0.00 | 0.00 | 0.00 | 38 | 1015.4 |
| 20260506180248 | 74 | 315 | 1.7 | 4.3 | 0.00 | 0.00 | 0.00 | 38 | 1015.4 |
| 20260506175515 | 74 | 277 | 1.7 | 4.3 | 0.00 | 0.00 | 0.00 | 38 | 1015.5 |
| 20260506175008 | 74 | 32 | 0.9 | 4.3 | 0.00 | 0.00 | 0.00 | 38 | 1015.5 |
| 20260506174717 | 74 | 312 | 1.7 | 4.3 | 0.00 | 0.00 | 0.00 | 38 | 1015.4 |
| 20260506174011 | 73 | 56 | 0.9 | 3.5 | 0.00 | 0.00 | 0.00 | 39 | 1015.4 |
| 20260506174008 | 74 | 75 | 1.7 | 4.3 | 0.00 | 0.00 | 0.00 | 40 | 1015.5 |
| 20260506172943 | 73 | 29 | 0.9 | 3.5 | 0.00 | 0.00 | 0.00 | 39 | 1015.4 |
| 20260506172434 | 74 | 13 | 0.9 | 3.5 | 0.00 | 0.00 | 0.00 | 39 | 1015.5 |
| 20260506172204 | 73 | 84 | 1.7 | 3.5 | 0.00 | 0.00 | 0.00 | 41 | 1015.5 |
| 20260506171422 | 73 | 127 | 1.7 | 5.2 | 0.00 | 0.00 | 0.00 | 41 | 1015.4 |
| 20260506170921 | 72 | 102 | 1.7 | 5.2 | 0.00 | 0.00 | 0.00 | 43 | 1015.4 |
| 20260506170642 | 71 | 132 | 0.9 | 3.5 | 0.00 | 0.00 | 0.00 | 44 | 1015.5 |
| 20260506165907 | 70 | 140 | 0.9 | 3.5 | 0.00 | 0.00 | 0.00 | 45 | 1015.6 |
| 20260506165359 | 69 | 194 | 0.9 | 3.5 | 0.00 | 0.00 | 0.00 | 46 | 1015.6 |
| 20260506165113 | 69 | 218 | 1.7 | 3.5 | 0.00 | 0.00 | 0.00 | 45 | 1015.6 |
| 20260506164346 | 69 | 308 | 0.9 | 3.5 | 0.00 | 0.00 | 0.00 | 47 | 1015.6 |
| 20260506163840 | 68 | 289 | 1.7 | 5.2 | 0.00 | 0.00 | 0.00 | 47 | 1015.6 |
| 20260506163334 | 68 | 283 | 1.7 | 5.2 | 0.00 | 0.00 | 0.00 | 49 | 1015.6 |
| 20260506163105 | 67 | 350 | 0.9 | 3.5 | 0.00 | 0.00 | 0.00 | 50 | 1015.6 |
| 20260506162321 | 67 | 257 | 1.7 | 3.5 | 0.00 | 0.00 | 0.00 | 51 | 1015.7 |
| 20260506161816 | 66 | 237 | 0.9 | 5.2 | 0.00 | 0.00 | 0.00 | 52 | 1015.7 |
| 20260506161533 | 66 | 237 | 0.9 | 2.6 | 0.00 | 0.00 | 0.00 | 53 | 1015.7 |
| 20260506161313 | 66 | 237 | 0.9 | 2.6 | 0.00 | 0.00 | 0.00 | 53 | 1015.7 |
| 20260506160809 | 66 | 97 | 0.9 | 3.5 | 0.00 | 0.00 | 0.00 | 54 | 1015.7 |
| 20260506160259 | 66 | 96 | 0.9 | 3.5 | 0.00 | 0.00 | 0.00 | 53 | 1015.8 |
| 20260506160012 | 66 | 108 | 0.0 | 2.6 | 0.00 | 0.00 | 0.00 | 55 | 1015.7 |
| 20260506155247 | 65 | 121 | 0.0 | 0.0 | 0.00 | 0.00 | 0.00 | 55 | 1015.7 |
| 20260506154741 | 64 | 121 | 0.0 | 1.7 | 0.00 | 0.00 | 0.00 | 56 | 1015.6 |
| 20260506154234 | 63 | 123 | 0.9 | 2.6 | 0.00 | 0.00 | 0.00 | 57 | 1015.7 |
| 20260506153734 | 62 | 124 | 0.9 | 2.6 | 0.00 | 0.00 | 0.00 | 59 | 1015.7 |
| 20260506153226 | 61 | 125 | 0.9 | 2.6 | 0.00 | 0.00 | 0.00 | 60 | 1015.7 |
| 20260506152720 | 60 | 140 | 0.9 | 2.6 | 0.00 | 0.00 | 0.00 | 60 | 1015.7 |
| 20260506152448 | 60 | 141 | 1.7 | 5.2 | 0.00 | 0.00 | 0.00 | 62 | 1015.8 |
| 20260506151706 | 59 | 123 | 1.7 | 5.2 | 0.00 | 0.00 | 0.00 | 63 | 1015.7 |
| 20260506151200 | 58 | 130 | 2.6 | 6.1 | 0.00 | 0.00 | 0.00 | 64 | 1015.7 |
| 20260506150657 | 57 | 134 | 2.6 | 7.0 | 0.00 | 0.00 | 0.00 | 66 | 1015.6 |
| 20260506150204 | 56 | 135 | 2.6 | 5.2 | 0.00 | 0.00 | 0.00 | 68 | 1015.6 |
| 20260506150159 | 57 | 124 | 2.6 | 7.0 | 0.00 | 0.00 | 0.00 | 66 | 1015.5 |
| 20260506145159 | 55 | 159 | 2.6 | 5.2 | 0.00 | 0.00 | 0.00 | 69 | 1015.5 |
| 20260506144703 | 54 | 128 | 2.6 | 7.0 | 0.00 | 0.00 | 0.00 | 71 | 1015.5 |
| 20260506144658 | 55 | 141 | 2.6 | 5.2 | 0.00 | 0.00 | 0.00 | 70 | 1015.6 |
| 20260506144446 | 54 | 128 | 2.6 | 7.0 | 0.00 | 0.00 | 0.00 | 71 | 1015.5 |
| 20260506143701 | 53 | 165 | 3.5 | 7.0 | 0.00 | 0.00 | 0.00 | 72 | 1015.4 |
| 20260506143159 | 52 | 140 | 2.6 | 7.0 | 0.00 | 0.00 | 0.00 | 73 | 1015.4 |
| 20260506142657 | 52 | 150 | 3.5 | 7.0 | 0.00 | 0.00 | 0.00 | 73 | 1015.3 |
| 20260506142200 | 52 | 160 | 3.5 | 7.8 | 0.00 | 0.00 | 0.00 | 74 | 1015.3 |
| 20260506141657 | 51 | 143 | 3.5 | 7.8 | 0.00 | 0.00 | 0.00 | 74 | 1015.2 |
| 20260506141159 | 51 | 161 | 3.5 | 7.0 | 0.00 | 0.00 | 0.00 | 75 | 1015.2 |
| 20260506140920 | 51 | 150 | 3.5 | 7.0 | 0.00 | 0.00 | 0.00 | 75 | 1015.1 |
| 20260506140159 | 51 | 150 | 3.5 | 8.7 | 0.00 | 0.00 | 0.00 | 76 | 1015.1 |
| 20260506135657 | 50 | 157 | 3.5 | 8.7 | 0.00 | 0.00 | 0.00 | 76 | 1015.0 |
| 20260506135158 | 50 | 142 | 3.5 | 7.8 | 0.00 | 0.00 | 0.00 | 76 | 1015.0 |
| 20260506134659 | 50 | 146 | 3.5 | 7.8 | 0.00 | 0.00 | 0.00 | 77 | 1014.8 |
| 20260506134158 | 50 | 144 | 3.5 | 7.8 | 0.00 | 0.00 | 0.00 | 77 | 1014.8 |
| 20260506133657 | 50 | 132 | 3.5 | 7.8 | 0.00 | 0.00 | 0.00 | 77 | 1014.7 |
| 20260506133438 | 50 | 134 | 3.5 | 7.8 | 0.00 | 0.00 | 0.00 | 77 | 1014.7 |
| 20260506132942 | 50 | 137 | 3.5 | 7.0 | 0.00 | 0.00 | 0.00 | 77 | 1014.6 |
| 20260506132158 | 50 | 149 | 3.5 | 7.8 | 0.00 | 0.00 | 0.00 | 77 | 1014.7 |
| 20260506131707 | 49 | 156 | 4.3 | 8.7 | 0.00 | 0.00 | 0.00 | 77 | 1014.6 |
| 20260506131446 | 49 | 151 | 3.5 | 8.7 | 0.00 | 0.00 | 0.00 | 78 | 1014.5 |
| 20260506130701 | 49 | 148 | 3.5 | 7.8 | 0.00 | 0.00 | 0.00 | 78 | 1014.5 |
| 20260506130159 | 49 | 131 | 3.5 | 7.0 | 0.00 | 0.00 | 0.00 | 77 | 1014.4 |
| 20260506125658 | 49 | 145 | 3.5 | 7.8 | 0.00 | 0.00 | 0.00 | 77 | 1014.4 |
| 20260506125414 | 49 | 151 | 2.6 | 7.8 | 0.00 | 0.00 | 0.00 | 76 | 1014.4 |
| 20260506124916 | 49 | 146 | 1.7 | 6.1 | 0.00 | 0.00 | 0.00 | 76 | 1014.5 |
| 20260506124416 | 49 | 161 | 1.7 | 5.2 | 0.00 | 0.00 | 0.00 | 76 | 1014.5 |
| 20260506123657 | 49 | 153 | 1.7 | 5.2 | 0.00 | 0.00 | 0.00 | 76 | 1014.5 |
| 20260506123416 | 50 | 138 | 1.7 | 6.1 | 0.00 | 0.00 | 0.00 | 76 | 1014.4 |
| 20260506122656 | 50 | 153 | 2.6 | 6.1 | 0.00 | 0.00 | 0.00 | 76 | 1014.4 |
| 20260506122151 | 50 | 146 | 2.6 | 6.1 | 0.00 | 0.00 | 0.00 | 76 | 1014.3 |
| 20260506121645 | 50 | 136 | 2.6 | 5.2 | 0.00 | 0.00 | 0.00 | 76 | 1014.3 |
| 20260506121420 | 50 | 145 | 2.6 | 6.1 | 0.00 | 0.00 | 0.00 | 76 | 1014.3 |
| 20260506120632 | 50 | 143 | 2.6 | 7.0 | 0.00 | 0.00 | 0.00 | 75 | 1014.2 |
| 20260506120409 | 51 | 143 | 3.5 | 7.0 | 0.00 | 0.00 | 0.00 | 75 | 1014.2 |
| 20260506115911 | 51 | 144 | 3.5 | 6.1 | 0.00 | 0.00 | 0.00 | 75 | 1014.1 |
| 20260506115113 | 51 | 140 | 2.6 | 6.1 | 0.00 | 0.00 | 0.00 | 75 | 1014.1 |
| 20260506114608 | 51 | 136 | 2.6 | 4.3 | 0.00 | 0.00 | 0.00 | 74 | 1014.1 |
| 20260506114102 | 51 | 140 | 2.6 | 4.3 | 0.00 | 0.00 | 0.00 | 74 | 1014.1 |
| 20260506113600 | 51 | 144 | 2.6 | 3.5 | 0.00 | 0.00 | 0.00 | 73 | 1014.0 |
| 20260506113050 | 51 | 139 | 1.7 | 3.5 | 0.00 | 0.00 | 0.00 | 73 | 1013.9 |
| 20260506112825 | 51 | 142 | 0.9 | 2.6 | 0.00 | 0.00 | 0.00 | 74 | 1013.9 |
| 20260506112041 | 51 | 143 | 0.0 | 2.6 | 0.00 | 0.00 | 0.00 | 73 | 1013.9 |
| 20260506111532 | 52 | 143 | 0.9 | 3.5 | 0.00 | 0.00 | 0.00 | 72 | 1013.9 |
| 20260506111026 | 53 | 144 | 0.9 | 3.5 | 0.00 | 0.00 | 0.00 | 71 | 1013.6 |
| 20260506110520 | 54 | 169 | 0.0 | 1.7 | 0.00 | 0.00 | 0.00 | 69 | 1013.6 |
| 20260506110014 | 55 | 169 | 0.0 | 0.0 | 0.00 | 0.00 | 0.00 | 69 | 1013.6 |
| 20260506105509 | 55 | 169 | 0.0 | 0.0 | 0.00 | 0.00 | 0.00 | 67 | 1013.8 |
| 20260506105003 | 55 | 169 | 0.0 | 0.0 | 0.00 | 0.00 | 0.00 | 67 | 1013.8 |
| 20260506104728 | 55 | 169 | 0.0 | 0.0 | 0.00 | 0.00 | 0.00 | 67 | 1013.8 |
| 20260506103950 | 55 | 169 | 0.0 | 0.9 | 0.00 | 0.00 | 0.00 | 67 | 1013.6 |
| 20260506103450 | 56 | 169 | 0.0 | 1.7 | 0.00 | 0.00 | 0.00 | 66 | 1013.5 |
| 20260506102951 | 56 | 169 | 0.0 | 2.6 | 0.00 | 0.00 | 0.00 | 67 | 1013.5 |
| 20260506102451 | 56 | 171 | 0.0 | 2.6 | 0.00 | 0.00 | 0.00 | 67 | 1013.5 |
| 20260506101953 | 56 | 182 | 0.9 | 4.3 | 0.00 | 0.00 | 0.00 | 67 | 1013.5 |
| 20260506101456 | 56 | 182 | 2.6 | 5.2 | 0.00 | 0.00 | 0.00 | 68 | 1013.5 |
| 20260506100946 | 56 | 188 | 1.7 | 5.2 | 0.00 | 0.00 | 0.00 | 69 | 1013.4 |
| 20260506100447 | 56 | 186 | 1.7 | 3.5 | 0.00 | 0.00 | 0.00 | 70 | 1013.4 |
| 20260506095944 | 56 | 188 | 1.7 | 3.5 | 0.00 | 0.00 | 0.00 | 70 | 1013.4 |
| 20260506095445 | 56 | 203 | 2.6 | 4.3 | 0.00 | 0.00 | 0.00 | 71 | 1013.4 |
| 20260506094947 | 56 | 203 | 1.7 | 4.3 | 0.00 | 0.00 | 0.00 | 72 | 1013.4 |
| 20260506094444 | 56 | 216 | 0.9 | 3.5 | 0.00 | 0.00 | 0.00 | 72 | 1013.4 |
| 20260506093944 | 56 | 216 | 0.0 | 1.7 | 0.00 | 0.00 | 0.00 | 72 | 1013.4 |
| 20260506093444 | 56 | 216 | 0.0 | 0.0 | 0.00 | 0.00 | 0.00 | 72 | 1013.3 |
| 20260506092946 | 57 | 216 | 0.0 | 0.0 | 0.00 | 0.00 | 0.00 | 71 | 1013.4 |
| 20260506092454 | 57 | 216 | 0.0 | 1.7 | 0.00 | 0.00 | 0.00 | 71 | 1013.4 |
| 20260506092220 | 57 | 216 | 0.9 | 1.7 | 0.00 | 0.00 | 0.00 | 71 | 1013.3 |
| 20260506091442 | 57 | 216 | 0.9 | 2.6 | 0.00 | 0.00 | 0.00 | 71 | 1013.3 |
| 20260506090942 | 58 | 218 | 0.9 | 2.6 | 0.00 | 0.00 | 0.00 | 71 | 1013.3 |
| 20260506090436 | 58 | 240 | 0.9 | 1.7 | 0.00 | 0.00 | 0.00 | 71 | 1013.2 |
| 20260506085931 | 58 | 242 | 0.9 | 1.7 | 0.00 | 0.00 | 0.00 | 70 | 1013.2 |
| 20260506085424 | 58 | 242 | 0.9 | 2.6 | 0.00 | 0.00 | 0.00 | 70 | 1013.3 |
| 20260506084923 | 58 | 242 | 0.9 | 2.6 | 0.00 | 0.00 | 0.00 | 70 | 1013.2 |
| 20260506084654 | 58 | 242 | 1.7 | 2.6 | 0.00 | 0.00 | 0.00 | 70 | 1013.3 |
| 20260506083922 | 58 | 244 | 1.7 | 2.6 | 0.00 | 0.00 | 0.00 | 69 | 1013.2 |
| 20260506083422 | 58 | 245 | 1.7 | 2.6 | 0.00 | 0.00 | 0.00 | 69 | 1013.3 |
| 20260506082922 | 58 | 252 | 1.7 | 2.6 | 0.00 | 0.00 | 0.00 | 68 | 1013.3 |
| 20260506082702 | 59 | 259 | 0.9 | 2.6 | 0.00 | 0.00 | 0.00 | 68 | 1013.3 |
| 20260506081923 | 59 | 262 | 0.9 | 2.6 | 0.00 | 0.00 | 0.00 | 68 | 1013.2 |
| 20260506081423 | 59 | 263 | 0.9 | 2.6 | 0.00 | 0.00 | 0.00 | 67 | 1013.3 |
| 20260506080923 | 59 | 263 | 0.0 | 1.7 | 0.00 | 0.00 | 0.00 | 68 | 1013.2 |
| 20260506080421 | 59 | 263 | 0.0 | 0.0 | 0.00 | 0.00 | 0.00 | 68 | 1013.2 |
| 20260506073422 | 60 | 265 | 0.0 | 0.0 | 0.00 | 0.00 | 0.00 | 67 | 1012.9 |
| 20260506072922 | 60 | 264 | 0.0 | 0.0 | 0.00 | 0.00 | 0.00 | 67 | 1012.9 |
| 20260506072701 | 60 | 264 | 0.0 | 0.0 | 0.00 | 0.00 | 0.00 | 67 | 1012.8 |
| 20260506072143 | 60 | 264 | 0.0 | 0.0 | 0.00 | 0.00 | 0.00 | 66 | 1012.8 |
| 20260506071409 | 60 | 264 | 0.0 | 0.0 | 0.00 | 0.00 | 0.00 | 66 | 1012.7 |
| 20260506070905 | 60 | 264 | 0.0 | 0.0 | 0.00 | 0.00 | 0.00 | 66 | 1012.6 |
| 20260506070355 | 60 | 264 | 0.0 | 0.0 | 0.00 | 0.00 | 0.00 | 65 | 1012.6 |
| 20260506062307 | 62 | 264 | 0.0 | 0.9 | 0.00 | 0.00 | 0.00 | 62 | 1012.3 |
| 20260506061802 | 63 | 264 | 0.0 | 0.9 | 0.00 | 0.00 | 0.00 | 62 | 1012.3 |
| 20260506061253 | 63 | 264 | 0.9 | 2.6 | 0.00 | 0.00 | 0.00 | 61 | 1012.2 |
| 20260506061038 | 63 | 265 | 0.9 | 2.6 | 0.00 | 0.00 | 0.00 | 61 | 1012.2 |
| 20260506060241 | 63 | 267 | 0.9 | 2.6 | 0.00 | 0.00 | 0.00 | 61 | 1012.1 |
| 20260506051141 | 66 | 296 | 1.7 | 6.1 | 0.00 | 0.00 | 0.00 | 59 | 1011.6 |
| 20260506050636 | 66 | 278 | 1.7 | 6.1 | 0.00 | 0.00 | 0.00 | 59 | 1011.6 |
| 20260506050425 | 66 | 276 | 1.7 | 6.1 | 0.00 | 0.00 | 0.00 | 59 | 1011.6 |
| 20260506045118 | 67 | 294 | 3.5 | 6.1 | 0.00 | 0.00 | 0.00 | 59 | 1011.5 |
| 20260506044853 | 67 | 267 | 3.5 | 6.1 | 0.00 | 0.00 | 0.00 | 59 | 1011.4 |
| 20260506044104 | 67 | 260 | 3.5 | 6.1 | 0.00 | 0.00 | 0.00 | 58 | 1011.3 |
| 20260506043558 | 67 | 279 | 2.6 | 6.1 | 0.00 | 0.00 | 0.00 | 57 | 1011.3 |
| 20260506043053 | 67 | 300 | 2.6 | 6.1 | 0.00 | 0.00 | 0.00 | 56 | 1011.3 |
| 20260506042600 | 68 | 271 | 1.7 | 4.3 | 0.00 | 0.00 | 0.00 | 54 | 1011.1 |
| 20260506041534 | 68 | 296 | 2.6 | 6.1 | 0.00 | 0.00 | 0.00 | 52 | 1011.0 |
| 20260506041029 | 68 | 281 | 2.6 | 6.1 | 0.00 | 0.00 | 0.00 | 52 | 1010.9 |
| 20260506040808 | 68 | 288 | 1.7 | 3.5 | 0.00 | 0.00 | 0.00 | 50 | 1010.9 |
| 20260506040303 | 68 | 298 | 0.9 | 2.6 | 0.00 | 0.00 | 0.00 | 48 | 1010.8 |
| 20260506035511 | 68 | 303 | 0.0 | 2.6 | 0.00 | 0.00 | 0.00 | 47 | 1010.7 |
| 20260506035005 | 68 | 304 | 0.0 | 0.9 | 0.00 | 0.00 | 0.00 | 47 | 1010.7 |
| 20260506034501 | 69 | 304 | 0.0 | 1.7 | 0.00 | 0.00 | 0.00 | 47 | 1010.6 |
| 20260506033953 | 69 | 304 | 0.0 | 1.7 | 0.00 | 0.00 | 0.00 | 46 | 1010.5 |
| 20260506033448 | 69 | 304 | 0.0 | 1.7 | 0.00 | 0.00 | 0.00 | 45 | 1010.3 |
| 20260506032941 | 70 | 304 | 0.0 | 0.9 | 0.00 | 0.00 | 0.00 | 45 | 1010.3 |
| 20260506032725 | 71 | 304 | 0.0 | 1.7 | 0.00 | 0.00 | 0.00 | 44 | 1010.3 |
| 20260506031929 | 71 | 304 | 0.0 | 1.7 | 0.00 | 0.00 | 0.00 | 43 | 1010.2 |
| 20260506031423 | 72 | 304 | 0.9 | 2.6 | 0.00 | 0.00 | 0.00 | 42 | 1010.2 |
| 20260506030918 | 73 | 306 | 1.7 | 4.3 | 0.00 | 0.00 | 0.00 | 42 | 1010.2 |
| 20260506030648 | 73 | 306 | 1.7 | 4.3 | 0.00 | 0.00 | 0.00 | 41 | 1010.2 |
| 20260506030148 | 74 | 304 | 2.6 | 4.3 | 0.00 | 0.00 | 0.00 | 41 | 1010.1 |
| 20260506025401 | 74 | 304 | 2.6 | 6.1 | 0.00 | 0.00 | 0.00 | 40 | 1010.1 |
| 20260506024853 | 74 | 300 | 2.6 | 6.1 | 0.00 | 0.00 | 0.00 | 40 | 1010.1 |
| 20260506024351 | 74 | 324 | 1.7 | 6.1 | 0.00 | 0.00 | 0.00 | 39 | 1009.9 |
| 20260506024141 | 75 | 313 | 1.7 | 4.3 | 0.00 | 0.00 | 0.00 | 39 | 1009.9 |
| 20260506023636 | 75 | 325 | 2.6 | 6.1 | 0.00 | 0.00 | 0.00 | 38 | 1009.9 |
| 20260506023145 | 75 | 296 | 2.6 | 7.8 | 0.00 | 0.00 | 0.00 | 37 | 1009.8 |
| 20260506022422 | 76 | 342 | 1.7 | 5.2 | 0.00 | 0.00 | 0.00 | 33 | 1009.8 |
| 20260506022352 | 76 | 348 | 2.6 | 7.8 | 0.00 | 0.00 | 0.00 | 35 | 1009.8 |
| 20260506022156 | 76 | 344 | 1.7 | 7.0 | 0.00 | 0.00 | 0.00 | 34 | 1009.7 |
| 20260506021352 | 76 | 344 | 1.7 | 7.0 | 0.00 | 0.00 | 0.00 | 34 | 1009.7 |
| 20260506020852 | 76 | 38 | 2.6 | 7.8 | 0.00 | 0.00 | 0.00 | 34 | 1009.7 |
| 20260506020351 | 76 | 19 | 2.6 | 7.8 | 0.00 | 0.00 | 0.00 | 33 | 1009.7 |
| 20260506015847 | 76 | 54 | 2.6 | 7.0 | 0.00 | 0.00 | 0.00 | 33 | 1009.7 |
| 20260506015347 | 77 | 351 | 2.6 | 7.8 | 0.00 | 0.00 | 0.00 | 33 | 1009.6 |
| 20260506014847 | 77 | 355 | 1.7 | 7.8 | 0.00 | 0.00 | 0.00 | 33 | 1009.6 |
| 20260506014348 | 77 | 29 | 2.6 | 7.8 | 0.00 | 0.00 | 0.00 | 33 | 1009.6 |
| 20260506013848 | 78 | 32 | 3.5 | 9.6 | 0.00 | 0.00 | 0.00 | 32 | 1009.6 |
| 20260506013347 | 78 | 337 | 3.5 | 12.2 | 0.00 | 0.00 | 0.00 | 31 | 1009.6 |
| 20260506012851 | 79 | 344 | 3.5 | 12.2 | 0.00 | 0.00 | 0.00 | 32 | 1009.6 |
| 20260506012349 | 79 | 53 | 2.6 | 9.6 | 0.00 | 0.00 | 0.00 | 31 | 1009.4 |
| 20260506011850 | 79 | 46 | 2.6 | 9.6 | 0.00 | 0.00 | 0.00 | 32 | 1009.5 |
| 20260506011341 | 79 | 54 | 2.6 | 8.7 | 0.00 | 0.00 | 0.00 | 32 | 1009.5 |
| 20260506010836 | 79 | 19 | 3.5 | 8.7 | 0.00 | 0.00 | 0.00 | 32 | 1009.5 |
| 20260506010403 | 80 | 333 | 4.3 | 10.4 | 0.00 | 0.00 | 0.00 | 31 | 1009.3 |
| 20260506010348 | 79 | 346 | 5.2 | 10.4 | 0.00 | 0.00 | 0.00 | 32 | 1009.4 |
| 20260506005318 | 79 | 355 | 2.6 | 7.0 | 0.00 | 0.00 | 0.00 | 32 | 1009.3 |
| 20260506004811 | 79 | 51 | 2.6 | 7.8 | 0.00 | 0.00 | 0.00 | 32 | 1009.4 |
| 20260506004304 | 79 | 13 | 3.5 | 8.7 | 0.00 | 0.00 | 0.00 | 32 | 1009.4 |
| 20260506004040 | 79 | 351 | 3.5 | 8.7 | 0.00 | 0.00 | 0.00 | 31 | 1009.3 |
| 20260506003252 | 81 | 333 | 2.6 | 8.7 | 0.00 | 0.00 | 0.00 | 31 | 1009.2 |
| 20260506002746 | 81 | 355 | 2.6 | 8.7 | 0.00 | 0.00 | 0.00 | 31 | 1009.2 |
| 20260506002528 | 81 | 58 | 3.5 | 12.2 | 0.00 | 0.00 | 0.00 | 31 | 1009.2 |
| 20260506002007 | 81 | 42 | 3.5 | 12.2 | 0.00 | 0.00 | 0.00 | 30 | 1009.2 |
| 20260506001228 | 81 | 324 | 4.3 | 9.6 | 0.00 | 0.00 | 0.00 | 30 | 1009.2 |
| 20260506000722 | 81 | 43 | 4.3 | 11.3 | 0.00 | 0.00 | 0.00 | 30 | 1009.2 |
| 20260506000221 | 81 | 12 | 3.5 | 11.3 | 0.00 | 0.00 | 0.00 | 30 | 1009.1 |
| 20260505235710 | 81 | 24 | 4.3 | 9.6 | 0.00 | 0.00 | 0.00 | 30 | 1009.2 |
| 20260505235443 | 82 | 11 | 4.3 | 10.4 | 0.00 | 0.00 | 0.00 | 30 | 1009.3 |
| 20260505234659 | 82 | 347 | 3.5 | 10.4 | 0.00 | 0.00 | 0.00 | 30 | 1009.3 |
| 20260505234151 | 82 | 57 | 3.5 | 9.6 | 0.00 | 0.00 | 0.00 | 30 | 1009.3 |
| 20260505233645 | 82 | 67 | 3.5 | 9.6 | 0.00 | 0.00 | 0.00 | 30 | 1009.3 |
| 20260505233427 | 82 | 338 | 3.5 | 7.0 | 0.00 | 0.00 | 0.00 | 30 | 1009.2 |
| 20260505232923 | 81 | 10 | 4.3 | 13.9 | 0.00 | 0.00 | 0.00 | 31 | 1009.3 |
| 20260505232128 | 81 | 0 | 5.2 | 13.9 | 0.00 | 0.00 | 0.00 | 31 | 1009.3 |
| 20260505231639 | 81 | 341 | 3.5 | 10.4 | 0.00 | 0.00 | 0.00 | 30 | 1009.3 |
| 20260505231634 | 81 | 317 | 4.3 | 10.4 | 0.00 | 0.00 | 0.00 | 31 | 1009.3 |
| 20260505230612 | 81 | 355 | 4.3 | 9.6 | 0.00 | 0.00 | 0.00 | 29 | 1009.3 |
| 20260505230105 | 81 | 355 | 5.2 | 9.6 | 0.00 | 0.00 | 0.00 | 29 | 1009.3 |
| 20260505225833 | 81 | 355 | 4.3 | 9.6 | 0.00 | 0.00 | 0.00 | 29 | 1009.3 |
| 20260505225137 | 81 | 19 | 5.2 | 13.0 | 0.00 | 0.00 | 0.00 | 29 | 1009.4 |
| 20260505225123 | 82 | 275 | 4.3 | 9.6 | 0.00 | 0.00 | 0.00 | 28 | 1009.3 |
| 20260505224042 | 82 | 337 | 4.3 | 10.4 | 0.00 | 0.00 | 0.00 | 29 | 1009.3 |
| 20260505223807 | 82 | 17 | 3.5 | 10.4 | 0.00 | 0.00 | 0.00 | 29 | 1009.2 |
| 20260505223029 | 82 | 28 | 2.6 | 8.7 | 0.00 | 0.00 | 0.00 | 29 | 1009.3 |
| 20260505222522 | 82 | 27 | 2.6 | 7.0 | 0.00 | 0.00 | 0.00 | 30 | 1009.3 |
| 20260505222250 | 81 | 54 | 3.5 | 13.0 | 0.00 | 0.00 | 0.00 | 30 | 1009.3 |
| 20260505221511 | 82 | 24 | 3.5 | 13.0 | 0.00 | 0.00 | 0.00 | 29 | 1009.3 |
| 20260505221005 | 82 | 61 | 2.6 | 8.7 | 0.00 | 0.00 | 0.00 | 30 | 1009.4 |
| 20260505220504 | 81 | 25 | 3.5 | 8.7 | 0.00 | 0.00 | 0.00 | 30 | 1009.4 |
| 20260505220226 | 81 | 321 | 4.3 | 9.6 | 0.00 | 0.00 | 0.00 | 29 | 1009.4 |
| 20260505215504 | 82 | 313 | 3.5 | 9.6 | 0.00 | 0.00 | 0.00 | 30 | 1009.5 |
| 20260505215008 | 82 | 34 | 2.6 | 7.0 | 0.00 | 0.00 | 0.00 | 31 | 1009.4 |
| 20260505214505 | 81 | 42 | 2.6 | 8.7 | 0.00 | 0.00 | 0.00 | 30 | 1009.5 |
| 20260505214238 | 81 | 69 | 3.5 | 8.7 | 0.00 | 0.00 | 0.00 | 31 | 1009.6 |
| 20260505213504 | 81 | 20 | 3.5 | 8.7 | 0.00 | 0.00 | 0.00 | 31 | 1009.6 |
| 20260505213250 | 80 | 344 | 3.5 | 9.6 | 0.00 | 0.00 | 0.00 | 32 | 1009.6 |
| 20260505212504 | 80 | 11 | 4.3 | 12.2 | 0.00 | 0.00 | 0.00 | 30 | 1009.7 |
| 20260505212004 | 80 | 39 | 3.5 | 12.2 | 0.00 | 0.00 | 0.00 | 32 | 1009.7 |